Hourly Weather Bolshie Ozerki

Today, 23 June, Wednesday

Time Temperature Precipitation Wind Pressure Humidity
00:00 +21°C° 0 mm 3 mps 743 mmHg 79%
01:00 +21°C° 0 mm 3 mps 743 mmHg 80%
02:00 +20°C° 0 mm 3 mps 743 mmHg 80%
03:00 +20°C° 0 mm 3 mps 743 mmHg 81%
04:00 +21°C° 0 mm 3 mps 743 mmHg 81%
05:00 +21°C° 0 mm 3 mps 743 mmHg 82%
06:00 +22°C° 0 mm 3 mps 743 mmHg 78%
07:00 +25°C° 0 mm 3 mps 743 mmHg 74%
08:00 +27°C° 0 mm 4 mps 744 mmHg 69%
09:00 +28°C° 0 mm 4 mps 744 mmHg 65%
10:00 +29°C° 0 mm 4 mps 744 mmHg 61%
11:00 +30°C° 0 mm 4 mps 744 mmHg 57%
12:00 +32°C° 0 mm 4 mps 744 mmHg 56%
13:00 +32°C° 0 mm 4 mps 744 mmHg 54%
14:00 +32°C° 0 mm 4 mps 744 mmHg 53%
15:00 +32°C° 0 mm 4 mps 743 mmHg 57%
16:00 +31°C° 0 mm 3 mps 743 mmHg 62%
17:00 +30°C° 0 mm 3 mps 743 mmHg 66%
18:00 +28°C° 0 mm 3 mps 743 mmHg 71%
19:00 +27°C° 0 mm 3 mps 743 mmHg 76%
20:00 +25°C° 0 mm 3 mps 743 mmHg 80%
21:00 +24°C° 0 mm 2 mps 743 mmHg 81%
22:00 +24°C° 0 mm 2 mps 743 mmHg 81%
23:00 +23°C° 0 mm 2 mps 743 mmHg 82%

Tomorrow, 24 June, Thursday

Time Temperature Precipitation Wind Pressure Humidity
00:00 +23°C° 0 mm 2 mps 743 mmHg 82%
01:00 +21°C° 0 mm 2 mps 743 mmHg 82%
02:00 +21°C° 0 mm 2 mps 743 mmHg 83%
03:00 +21°C° 0 mm 2 mps 743 mmHg 83%
04:00 +23°C° 0 mm 2 mps 743 mmHg 83%
05:00 +23°C° 0 mm 2 mps 743 mmHg 83%
06:00 +25°C° 0 mm 2 mps 743 mmHg 78%
07:00 +26°C° 0 mm 2 mps 743 mmHg 73%
08:00 +28°C° 0 mm 2 mps 744 mmHg 68%
09:00 +29°C° 0 mm 2 mps 744 mmHg 65%
10:00 +30°C° 0 mm 2 mps 744 mmHg 61%
11:00 +31°C° 0 mm 2 mps 744 mmHg 57%
12:00 +31°C° 0 mm 2 mps 744 mmHg 55%
13:00 +31°C° 0 mm 2 mps 743 mmHg 54%
14:00 +32°C° 0 mm 2 mps 743 mmHg 52%
15:00 +32°C° 0 mm 2 mps 743 mmHg 55%
16:00 +31°C° 0 mm 1 mps 743 mmHg 58%
17:00 +31°C° 0 mm 1 mps 742 mmHg 61%
18:00 +30°C° 0 mm 1 mps 742 mmHg 66%
19:00 +28°C° 0 mm 1 mps 742 mmHg 70%
20:00 +26°C° 0 mm 1 mps 742 mmHg 74%
21:00 +25°C° 0 mm 1 mps 742 mmHg 76%
22:00 +25°C° 0 mm 1 mps 742 mmHg 78%
23:00 +24°C° 0 mm 1 mps 742 mmHg 80%

Day after tomorrow, 25 June, Friday

Time Temperature Precipitation Wind Pressure Humidity
00:00 +24°C° 0 mm 1 mps 742 mmHg 81%
01:00 +23°C° 0 mm 1 mps 742 mmHg 83%
02:00 +21°C° 0 mm 0 mps 742 mmHg 84%
03:00 +23°C° 0 mm 1 mps 742 mmHg 84%
04:00 +24°C° 0 mm 1 mps 742 mmHg 84%
05:00 +24°C° 0 mm 1 mps 742 mmHg 84%
06:00 +25°C° 0 mm 1 mps 741 mmHg 79%
07:00 +27°C° 0 mm 1 mps 741 mmHg 74%
08:00 +28°C° 0 mm 2 mps 741 mmHg 69%
09:00 +29°C° 0.3 mm 1 mps 741 mmHg 65%
10:00 +30°C° 0.3 mm 1 mps 742 mmHg 61%
11:00 +30°C° 0.3 mm 1 mps 742 mmHg 57%
12:00 +31°C° 0 mm 1 mps 741 mmHg 55%
13:00 +31°C° 0 mm 1 mps 741 mmHg 53%
14:00 +31°C° 0 mm 1 mps 741 mmHg 51%
15:00 +31°C° 0 mm 1 mps 741 mmHg 54%
16:00 +31°C° 0 mm 1 mps 740 mmHg 57%
17:00 +31°C° 0 mm 1 mps 740 mmHg 60%
18:00 +29°C° 0.1 mm 1 mps 740 mmHg 65%
19:00 +27°C° 0.1 mm 1 mps 740 mmHg 70%
20:00 +25°C° 0.1 mm 1 mps 740 mmHg 76%
21:00 +25°C° 0 mm 1 mps 740 mmHg 77%
22:00 +24°C° 0 mm 1 mps 739 mmHg 78%
23:00 +24°C° 0 mm 1 mps 739 mmHg 80%

26 June, Saturday

Time Temperature Precipitation Wind Pressure Humidity
00:00 +23°C° 0.1 mm 1 mps 739 mmHg 81%
01:00 +21°C° 0.1 mm 0 mps 739 mmHg 83%
02:00 +21°C° 0.1 mm 0 mps 739 mmHg 84%
03:00 +21°C° 0 mm 0 mps 739 mmHg 84%
04:00 +24°C° 0 mm 1 mps 739 mmHg 84%
05:00 +24°C° 0 mm 1 mps 739 mmHg 83%
06:00 +25°C° 0.1 mm 1 mps 739 mmHg 79%
07:00 +27°C° 0.1 mm 1 mps 739 mmHg 74%
08:00 +28°C° 0.1 mm 1 mps 739 mmHg 70%
09:00 +29°C° 0.3 mm 1 mps 739 mmHg 65%
10:00 +30°C° 0.3 mm 1 mps 739 mmHg 60%
11:00 +31°C° 0.3 mm 1 mps 739 mmHg 55%
12:00 +31°C° 0 mm 1 mps 739 mmHg 54%
13:00 +31°C° 0 mm 1 mps 739 mmHg 52%
14:00 +32°C° 0 mm 1 mps 739 mmHg 51%
15:00 +32°C° 0 mm 1 mps 739 mmHg 54%
16:00 +31°C° 0 mm 1 mps 738 mmHg 58%
17:00 +31°C° 0 mm 2 mps 738 mmHg 61%
18:00 +29°C° 0.1 mm 2 mps 738 mmHg 66%
19:00 +27°C° 0.1 mm 2 mps 738 mmHg 71%
20:00 +25°C° 0.1 mm 2 mps 738 mmHg 76%
21:00 +24°C° 0.1 mm 2 mps 738 mmHg 79%
22:00 +23°C° 0.1 mm 2 mps 738 mmHg 81%
23:00 +21°C° 0.1 mm 2 mps 738 mmHg 83%

27 June, Sunday

Time Temperature Precipitation Wind Pressure Humidity
00:00 +21°C° 0.1 mm 2 mps 738 mmHg 84%
01:00 +22°C° 0.1 mm 1 mps 738 mmHg 85%
02:00 +22°C° 0.1 mm 1 mps 738 mmHg 86%
03:00 +22°C° 0 mm 1 mps 738 mmHg 85%
04:00 +21°C° 0 mm 0 mps 738 mmHg 84%
05:00 +22°C° 0 mm 0 mps 738 mmHg 83%
06:00 +23°C° 0 mm 0 mps 738 mmHg 79%
07:00 +26°C° 0 mm 1 mps 738 mmHg 75%
08:00 +28°C° 0 mm 1 mps 738 mmHg 71%
09:00 +28°C° 0.4 mm 1 mps 738 mmHg 68%
10:00 +29°C° 0.4 mm 2 mps 738 mmHg 66%
11:00 +30°C° 0.4 mm 2 mps 738 mmHg 64%
12:00 +30°C° 0.3 mm 1 mps 738 mmHg 62%
13:00 +31°C° 0.3 mm 1 mps 738 mmHg 61%
14:00 +31°C° 0.3 mm 1 mps 738 mmHg 59%
15:00 +31°C° 0 mm 1 mps 738 mmHg 61%
16:00 +31°C° 0 mm 1 mps 738 mmHg 64%
17:00 +31°C° 0 mm 1 mps 737 mmHg 66%
18:00 +29°C° 0.1 mm 1 mps 737 mmHg 70%
19:00 +28°C° 0.1 mm 1 mps 737 mmHg 74%
20:00 +26°C° 0.1 mm 1 mps 737 mmHg 77%
21:00 +25°C° 0.2 mm 2 mps 737 mmHg 80%
22:00 +25°C° 0.2 mm 2 mps 737 mmHg 82%
23:00 +24°C° 0.2 mm 2 mps 737 mmHg 85%

28 June, Monday

Time Temperature Precipitation Wind Pressure Humidity
00:00 +24°C° 1.1 mm 2 mps 737 mmHg 87%
01:00 +23°C° 1.1 mm 2 mps 736 mmHg 88%
02:00 +23°C° 1.1 mm 2 mps 736 mmHg 90%
03:00 +23°C° 1 mm 2 mps 736 mmHg 90%
04:00 +23°C° 1 mm 2 mps 736 mmHg 91%
05:00 +22°C° 1 mm 3 mps 736 mmHg 91%
06:00 +22°C° 1.7 mm 4 mps 736 mmHg 91%
07:00 +22°C° 1.7 mm 4 mps 736 mmHg 90%
08:00 +21°C° 1.7 mm 5 mps 736 mmHg 89%
09:00 +23°C° 0.6 mm 5 mps 736 mmHg 86%
10:00 +25°C° 0.6 mm 5 mps 736 mmHg 82%
11:00 +27°C° 0.6 mm 5 mps 736 mmHg 79%
12:00 +28°C° 0.6 mm 5 mps 736 mmHg 76%
13:00 +29°C° 0.6 mm 4 mps 736 mmHg 73%
14:00 +30°C° 0.6 mm 4 mps 735 mmHg 70%
15:00 +30°C° 1.8 mm 4 mps 735 mmHg 73%
16:00 +29°C° 1.8 mm 3 mps 735 mmHg 75%
17:00 +28°C° 1.8 mm 3 mps 734 mmHg 78%
18:00 +27°C° 1.8 mm 3 mps 734 mmHg 81%
19:00 +26°C° 1.8 mm 3 mps 734 mmHg 84%
20:00 +24°C° 1.8 mm 2 mps 734 mmHg 88%
21:00 +23°C° 1.4 mm 2 mps 734 mmHg 90%
22:00 +21°C° 1.4 mm 2 mps 734 mmHg 93%
23:00 +20°C° 1.4 mm 2 mps 734 mmHg 95%
Show more